IRIDIUM 11 [-]

Last updated on Tue Oct 23 2018 00:08:16 GMT+0000 (Coordinated Universal Time)

1 25578U 98074B 18295.22392449 .12158264 -12312-5 18093-3 0 9993 2 25578 86.4017 48.2970 0080065 282.3352 77.0276 16.37044354 48232

Satellite not in orbit